Theta_e
347 344 341 338 338 336 332 332 329 324 321 318 317 320 324 326 329 330 331 332 333 334 335 335 335 335 335 335 335 334 334 333 332 330 327 320 315 313 313 314 314 315 314 313 311 311 311 310 310 310 310 310 309 309 310 310 312 314 316 316 317 316 315 318 321 324 326 328 329 328 329 330 330 329 330 330 329 330 332 334 335 336 337 336 336
347 344 340 338 337 335 331 331 327 325 323 320 319 318 318 319 322 324 327 329 331 333 334 335 335 335 335 335 334 332 331 330 329 328 325 320 315 313 313 314 314 315 314 312 311 311 310 310 311 312 313 313 312 311 310 311 314 315 315 316 317 317 315 312 315 319 323 327 329 328 330 330 329 329 329 329 329 330 332 334 335 336 337 336 336
346 343 338 337 337 334 331 330 327 327 325 322 319 317 316 316 318 319 322 324 327 330 333 334 334 334 334 333 331 330 328 326 325 325 323 319 315 314 313 314 314 315 314 312 311 311 310 313 314 314 315 316 316 315 313 314 316 314 315 317 319 318 315 312 311 313 317 323 326 328 329 330 330 328 328 329 329 330 332 334 335 336 336 336 336
346 342 337 337 336 333 331 329 328 329 326 322 320 318 317 315 316 318 319 320 323 326 330 333 333 333 332 331 330 328 324 322 322 321 320 318 315 313 314 314 317 316 313 313 312 313 316 320 321 318 318 319 320 319 318 319 319 315 316 319 319 317 315 313 310 311 313 316 320 325 327 329 330 328 326 327 328 329 330 333 334 335 336 336 336
344 339 336 337 336 333 330 329 328 329 327 323 322 322 320 317 316 317 317 319 321 324 328 330 331 331 331 329 329 328 326 325 321 320 319 317 315 313 314 313 318 318 313 314 313 315 320 322 320 320 321 322 323 323 322 322 322 318 319 320 318 317 317 313 309 309 310 312 314 318 322 324 326 326 324 325 327 326 328 330 332 333 335 335 335
342 336 335 336 336 333 330 329 329 330 328 325 325 325 323 319 317 316 315 316 320 324 326 328 330 329 328 328 329 331 330 326 320 318 317 316 315 314 314 313 316 317 314 314 318 321 322 322 320 320 320 321 325 327 326 324 322 319 320 321 318 317 318 316 311 308 309 311 312 314 317 317 320 323 323 322 324 325 325 326 328 331 333 334 333
338 334 334 335 335 332 331 329 329 330 329 328 327 326 324 321 319 317 316 315 317 323 325 328 332 331 329 325 326 327 324 319 316 316 316 316 315 314 313 313 313 314 314 315 321 324 325 326 326 324 321 321 323 325 327 325 322 320 320 320 318 318 320 318 312 308 308 310 312 314 316 315 315 319 320 320 321 321 322 324 325 328 330 331 329
334 332 333 335 335 332 331 330 329 330 330 329 328 327 326 323 321 319 318 316 315 317 321 324 328 331 329 325 327 328 324 317 316 315 315 316 316 315 313 313 313 312 314 316 320 323 324 327 327 325 324 324 321 322 325 324 322 321 321 320 319 319 320 317 312 309 307 309 311 312 313 313 312 314 316 316 316 316 318 319 320 322 323 324 323
332 332 333 335 335 333 331 330 329 330 330 330 329 328 327 326 325 323 322 321 320 321 325 324 323 328 326 326 330 332 330 321 315 315 315 316 316 316 314 312 312 312 312 315 317 318 321 323 324 324 324 323 320 323 324 324 323 321 322 321 320 321 318 314 311 310 308 308 309 310 311 311 312 312 313 312 312 312 313 314 315 316 316 316 316
332 332 333 335 335 334 332 331 330 330 330 330 330 329 328 328 327 327 326 325 324 326 330 329 328 329 324 324 328 330 329 321 315 315 315 315 316 318 316 312 311 312 312 312 313 313 316 320 322 323 322 321 320 322 324 325 324 323 322 321 321 320 316 314 312 310 309 308 308 309 309 311 311 310 310 310 310 311 311 312 312 313 313 313 313
332 333 334 335 335 334 332 332 330 330 330 330 330 329 329 328 328 328 328 324 324 327 328 330 331 329 326 328 328 325 323 317 315 315 315 315 315 318 317 313 311 312 312 312 312 313 315 317 320 321 322 321 319 320 323 325 325 324 322 321 322 319 316 316 314 311 310 309 308 308 308 310 310 310 309 309 310 310 311 311 311 312 312 312 312
332 334 335 335 335 334 332 331 331 330 329 330 330 330 329 329 328 328 327 322 323 327 324 324 327 325 327 332 329 326 324 319 317 316 316 316 316 317 317 314 311 311 311 311 312 314 316 318 320 322 324 321 317 318 322 325 325 325 322 321 322 319 318 317 315 313 310 309 308 308 308 309 310 310 310 310 309 309 310 310 311 311 311 311 311
332 334 335 336 336 335 332 331 331 330 329 329 330 331 330 329 328 327 326 320 319 322 320 319 320 320 323 328 327 325 326 321 317 317 317 317 317 316 316 316 314 312 311 311 313 315 317 319 322 323 324 322 317 317 321 324 324 324 323 323 322 320 320 319 317 315 312 310 309 308 308 308 309 309 310 310 310 309 309 309 309 309 309 309 308
332 334 336 336 336 336 333 332 331 330 329 329 329 331 331 330 328 326 323 320 318 319 321 322 321 321 320 322 322 321 321 319 316 317 316 316 316 316 315 316 315 314 311 312 314 317 319 321 324 324 324 322 319 317 321 323 323 323 324 324 323 322 322 321 319 317 314 311 310 309 309 308 308 308 309 309 309 309 309 308 308 308 308 308 308
332 334 336 336 336 336 335 332 331 331 330 329 329 331 332 331 329 325 322 319 319 320 322 324 324 323 321 320 320 317 317 317 317 319 318 316 316 316 315 315 315 315 313 312 315 318 320 323 324 323 322 322 320 319 320 322 322 323 324 324 324 324 324 322 321 319 316 313 311 310 309 308 308 308 308 308 309 309 309 309 308 308 308 308 308
332 334 336 337 337 337 336 334 331 330 330 330 330 331 332 332 329 324 321 320 321 323 325 326 326 324 321 321 320 319 318 319 321 323 322 319 319 318 317 317 316 315 314 313 316 320 322 324 324 321 320 320 321 320 321 322 322 323 324 325 325 325 325 323 321 320 318 315 312 311 310 309 308 307 307 308 308 308 308 308 308 308 309 308 309
332 334 336 337 337 337 337 335 333 330 330 331 331 332 332 333 329 323 322 322 324 326 328 330 331 328 325 324 324 324 324 324 326 327 327 325 324 321 319 320 318 315 315 314 316 321 324 325 324 322 321 321 321 321 321 322 323 324 325 326 326 325 325 324 323 320 317 315 313 311 310 310 309 308 307 307 307 308 308 308 308 308 308 308 308
332 334 335 336 336 337 337 336 335 331 329 330 331 332 332 333 329 323 322 324 326 328 330 332 333 332 331 330 330 328 328 329 330 330 330 328 327 325 322 321 320 317 315 315 315 319 325 327 327 325 323 323 322 322 322 322 324 325 326 326 326 325 324 324 323 319 316 315 314 313 311 309 309 308 308 307 307 307 307 308 308 308 308 308 308
333 334 334 335 336 337 337 337 336 333 331 331 331 331 332 333 328 323 324 325 327 329 330 332 333 333 333 333 332 332 331 331 331 331 330 330 329 327 325 323 322 320 317 315 315 318 325 329 329 328 326 326 325 323 324 324 325 326 326 326 326 325 324 325 323 319 316 315 314 314 312 309 309 309 308 308 307 306 307 307 307 308 308 308 308
334 334 334 334 336 336 336 337 336 335 334 332 331 331 332 333 328 323 325 327 328 330 330 331 333 333 333 333 333 334 333 333 332 332 331 331 330 328 326 324 322 321 320 317 315 316 323 329 330 330 328 328 328 326 326 326 326 327 327 327 326 325 325 326 324 319 318 317 315 314 314 311 309 309 308 307 307 306 306 306 307 307 307 308 307
334 334 334 335 335 335 334 335 336 336 335 334 333 331 332 333 328 324 326 328 329 330 330 331 332 333 333 333 333 334 334 333 332 331 331 330 330 329 326 324 323 322 321 319 317 315 320 328 331 331 330 330 330 328 327 327 328 328 328 328 326 326 327 328 325 322 322 321 318 316 315 314 311 309 309 308 307 307 306 306 306 306 306 307 307
335 335 334 333 332 331 331 332 334 336 336 335 334 332 332 333 328 325 327 328 329 331 330 331 332 333 333 333 333 333 334 333 331 330 329 329 330 329 327 325 324 323 322 321 319 316 317 322 327 330 331 331 331 331 327 328 329 328 329 329 326 326 328 329 327 325 325 324 321 317 316 315 314 310 309 308 308 307 306 306 306 306 306 306 306
337 335 333 330 327 327 329 331 333 334 335 335 335 333 332 332 327 324 328 329 330 331 330 331 332 333 332 332 332 332 334 332 329 328 327 329 329 327 327 325 324 323 322 322 321 318 316 316 319 324 330 332 332 332 329 328 330 329 329 329 327 327 329 329 328 327 326 324 323 319 316 316 316 315 313 310 309 308 307 307 306 306 306 306 306
337 334 331 328 325 325 327 330 331 333 335 335 335 333 332 331 326 325 329 330 331 331 331 331 331 331 330 330 330 331 333 330 329 329 328 328 326 325 325 323 323 321 320 321 321 320 318 316 316 319 327 332 332 332 330 328 330 330 329 329 328 328 329 329 328 327 326 324 323 320 317 316 317 322 323 318 312 309 308 307 306 306 306 306 305
336 333 330 328 326 325 326 328 329 331 334 335 335 333 332 331 327 327 330 330 331 331 331 329 327 327 327 328 329 330 330 328 328 328 326 325 324 324 323 322 321 320 319 319 319 320 320 318 316 316 322 329 330 332 332 329 330 330 329 329 329 329 329 329 329 327 326 325 323 321 318 316 318 325 329 326 320 315 312 309 307 307 306 306 305
336 334 333 331 329 327 327 327 328 330 332 334 334 332 332 331 327 327 330 330 331 332 330 327 325 326 326 328 328 329 328 327 326 326 324 324 324 323 322 322 321 320 320 319 319 319 319 319 318 316 317 323 328 331 332 329 330 330 329 329 329 329 329 329 329 328 327 325 323 321 318 316 319 326 330 328 326 321 315 312 309 307 307 306 306
335 334 333 331 330 329 329 329 328 329 331 334 334 332 332 330 326 327 330 330 331 332 329 327 327 327 327 327 327 328 327 327 326 326 325 324 323 322 321 321 320 320 319 319 319 318 318 319 319 317 315 318 325 331 331 329 330 330 329 329 330 330 329 330 329 329 327 324 322 319 317 316 318 325 329 329 329 324 317 313 310 308 307 306 306
335 332 332 331 331 331 331 330 330 329 330 333 333 332 332 329 326 328 330 330 332 332 329 328 328 327 327 327 328 329 328 327 327 327 325 324 323 322 321 320 320 320 319 318 318 318 318 318 319 319 316 318 325 331 330 329 330 330 330 329 330 330 330 330 330 329 326 321 320 317 316 316 318 324 327 328 327 323 320 316 311 308 308 307 306
335 333 332 332 333 332 331 330 330 329 330 332 333 333 332 329 326 328 330 330 332 331 328 328 328 327 327 327 328 329 328 327 327 327 326 325 324 322 320 321 323 323 320 319 319 319 318 319 320 321 320 320 327 331 330 329 329 329 330 330 330 330 330 330 330 328 324 320 319 317 316 316 318 323 326 326 324 321 323 323 318 312 308 307 307
335 335 333 332 333 332 331 330 330 330 331 332 333 332 332 329 327 328 330 330 331 330 327 328 328 328 329 328 328 328 327 327 327 328 327 326 325 325 323 323 326 326 323 322 322 320 319 320 322 323 323 324 328 330 329 328 328 328 330 330 330 330 330 330 330 326 323 320 318 317 317 316 318 321 323 324 322 320 323 325 322 315 309 309 308
335 335 335 332 332 333 332 331 330 331 331 332 332 332 331 330 329 328 329 330 331 328 327 328 328 329 330 329 328 327 327 328 328 328 327 327 327 327 327 326 327 328 326 325 324 323 322 322 324 324 325 325 327 330 329 328 327 328 329 329 330 330 330 330 329 327 324 321 319 318 317 317 318 319 321 322 320 320 322 322 321 315 311 311 310
335 336 336 333 332 333 332 332 331 331 332 331 332 331 330 330 329 329 329 330 331 327 326 329 329 330 331 330 328 328 328 328 328 328 327 328 327 327 328 327 327 327 327 327 326 326 325 325 326 326 326 326 326 328 329 328 327 327 327 328 329 330 331 330 329 328 326 323 321 319 317 316 318 319 319 319 319 322 323 323 321 319 316 315 315
336 336 336 334 332 332 333 334 333 333 332 333 333 331 330 330 329 329 328 330 330 326 326 329 330 330 331 330 329 328 327 328 328 327 327 328 328 327 327 327 327 327 326 327 327 327 327 327 328 328 328 328 327 326 326 326 326 326 326 328 330 330 330 330 329 328 326 325 322 320 319 317 318 319 318 317 320 324 325 325 324 324 322 322 321
337 337 337 335 333 333 334 334 334 334 334 334 333 330 329 329 329 329 328 330 328 324 326 330 330 330 331 330 329 326 324 326 328 327 327 327 328 328 327 327 328 327 326 327 328 328 327 328 329 329 329 329 328 327 326 325 326 327 327 329 330 330 330 329 329 328 326 325 323 322 322 320 319 320 320 321 324 326 326 327 326 325 325 325 325
338 338 337 336 334 333 334 334 335 336 335 334 333 330 328 328 330 329 329 330 327 325 328 329 330 331 330 328 327 326 324 324 327 328 327 328 328 327 327 327 327 327 326 327 328 328 328 329 329 330 329 329 329 329 327 327 328 328 329 330 330 330 329 329 329 328 327 326 325 325 324 323 322 322 322 323 326 327 326 326 326 325 326 326 325
338 338 338 337 335 334 333 334 334 335 335 334 333 330 328 328 330 330 330 329 327 327 328 328 330 330 328 326 326 327 326 324 326 326 327 329 328 327 327 326 326 326 326 327 328 328 328 328 328 329 329 328 328 328 327 327 328 330 330 328 328 329 329 329 329 328 327 327 326 325 325 325 324 324 324 324 325 326 326 326 325 325 326 325 325
338 338 338 337 336 335 334 333 333 333 334 333 333 331 329 329 330 330 330 328 326 327 327 329 330 327 325 325 327 328 326 325 325 324 326 328 328 327 327 326 326 326 326 327 328 327 327 327 327 328 328 327 327 327 327 327 329 329 328 327 328 328 328 328 328 328 327 326 326 325 325 325 325 325 325 325 325 325 325 325 325 325 325 324 323
338 338 337 336 335 335 335 334 333 333 333 333 333 332 331 331 330 330 330 327 326 327 327 330 329 325 324 326 328 328 326 326 325 324 325 327 327 327 327 326 326 327 326 326 327 327 327 327 327 328 328 327 326 326 326 328 329 328 328 328 328 327 327 327 327 327 327 326 326 325 325 326 326 326 325 325 325 325 324 324 325 325 324 323 323
338 338 337 336 335 335 335 335 335 335 334 334 333 332 332 331 330 330 329 327 327 327 327 328 326 324 326 328 328 328 326 326 325 325 326 326 326 327 327 326 327 327 326 326 326 326 327 327 327 327 327 327 326 327 328 328 328 328 328 328 327 327 327 326 326 326 326 326 326 325 326 326 326 326 326 325 325 325 325 325 325 325 324 324 323
338 337 336 336 336 336 335 335 336 336 335 334 332 331 332 331 329 329 327 326 327 326 325 326 327 326 327 328 328 327 327 326 326 326 326 326 327 327 327 327 327 327 327 326 326 327 328 327 327 327 326 326 327 328 328 328 328 328 328 328 328 327 327 326 326 326 326 326 325 325 325 324 325 326 326 326 326 326 325 325 325 325 324 323 323
337 337 336 336 336 335 334 335 336 335 334 334 332 332 331 329 328 327 326 326 326 325 326 328 327 327 327 328 328 327 327 326 326 326 326 327 328 327 326 327 328 328 327 327 327 327 328 328 327 326 326 326 327 328 328 328 328 328 328 328 328 327 327 327 326 326 325 324 323 322 322 322 323 325 326 325 325 325 324 324 325 324 323 323 323
336 336 336 335 335 334 333 334 335 334 334 333 332 332 330 327 327 328 326 325 325 326 328 328 326 326 326 326 326 326 326 326 326 326 327 328 328 327 326 327 328 328 328 328 327 327 327 328 327 326 327 327 327 328 328 328 328 328 328 328 327 327 326 326 325 324 322 321 320 319 319 320 323 324 324 324 323 322 322 323 324 323 322 322 321
336 336 335 334 334 334 334 334 334 334 333 331 330 330 327 326 327 327 325 325 326 328 329 327 325 325 325 325 326 327 327 326 326 327 327 328 328 328 327 327 328 328 329 328 327 327 327 328 327 326 327 327 327 327 328 328 328 328 327 327 327 327 326 324 323 322 322 321 321 320 319 320 321 322 322 322 321 321 322 322 322 321 320 320 319
336 336 334 333 333 334 333 332 333 332 331 329 328 327 326 325 326 326 327 327 327 327 326 325 325 326 326 327 328 328 327 326 325 326 326 327 327 328 328 328 328 328 328 327 327 326 326 328 327 326 326 326 327 327 327 328 328 327 327 327 326 326 326 324 322 322 323 322 322 321 320 320 320 320 320 320 320 321 321 321 320 319 319 319 318
336 335 333 331 332 333 332 330 331 331 329 327 326 326 326 325 326 327 328 327 326 325 325 326 326 327 328 327 327 326 325 324 324 325 326 327 327 327 327 327 327 327 327 327 327 326 326 327 328 327 327 326 326 327 327 327 328 327 326 326 326 325 325 324 322 323 323 323 322 322 321 320 320 320 320 320 320 320 320 319 319 319 319 319 319
335 333 332 330 332 332 330 329 329 328 326 326 326 326 326 326 327 328 327 325 325 325 325 326 326 326 327 326 325 325 324 324 324 325 326 326 326 327 327 326 326 326 326 326 327 326 326 327 328 328 327 327 327 327 327 327 328 328 326 325 325 325 325 323 323 323 323 323 322 321 321 320 319 319 319 319 318 318 318 318 318 319 319 318 317
334 333 331 330 331 331 328 328 327 326 326 326 326 326 327 327 327 326 325 324 324 323 324 325 325 325 325 325 325 325 325 325 325 325 325 325 326 327 326 325 326 326 326 326 326 326 326 327 328 328 328 328 328 327 327 328 328 328 327 326 325 325 324 324 323 323 323 324 323 321 320 319 318 318 317 316 315 315 316 316 315 315 315 315 313
333 332 330 330 330 328 327 327 326 325 325 325 326 326 327 327 326 324 324 323 322 322 324 325 324 325 325 325 325 325 325 324 324 324 325 325 326 326 325 325 326 326 326 326 325 325 326 327 328 328 328 328 328 328 328 328 328 327 327 326 325 325 324 324 324 323 323 324 323 322 320 319 318 318 316 313 311 311 313 314 314 314 313 312 311
333 331 329 329 328 326 326 326 325 325 325 324 325 326 326 325 324 324 323 322 321 322 323 324 325 325 325 324 324 324 324 324 324 324 324 325 325 326 325 324 324 325 325 325 324 324 326 327 327 327 327 327 327 327 328 328 328 327 327 327 326 325 325 324 324 323 322 323 323 322 320 319 319 318 315 311 309 308 309 312 314 315 313 310 308
332 331 328 328 327 326 326 325 325 325 324 325 325 325 325 324 323 323 322 320 320 321 322 322 322 323 323 323 323 322 321 321 323 324 324 324 325 325 325 325 325 325 325 325 325 325 325 326 326 326 326 326 326 326 327 327 328 327 326 326 327 325 324 324 324 324 322 322 322 322 321 319 318 317 315 312 309 308 308 309 311 312 310 308 306
332 330 328 327 327 327 326 326 325 324 324 324 325 325 324 323 323 323 321 320 320 319 318 317 316 317 318 318 318 317 317 317 319 320 321 323 324 323 323 324 324 324 325 324 324 325 325 325 325 325 326 326 325 326 326 327 327 327 327 326 326 325 324 323 323 323 322 321 322 322 321 319 318 317 315 312 310 309 308 307 308 307 306 306 306
Wind_Speed
29 30 27 26 24 24 23 20 17 16 15 15 16 17 18 18 19 18 18 19 19 20 20 20 20 20 19 18 18 16 15 14 13 13 13 13 13 14 14 14 14 15 17 17 17 17 17 18 17 17 18 19 19 19 21 23 24 25 27 29 29 28 26 23 21 20 21 21 20 20 19 18 19 19 20 20 19 18 18 19 20 20 21 22 21
32 32 29 27 26 25 23 21 18 17 17 16 16 16 17 17 18 18 19 19 20 21 21 21 20 20 19 18 17 16 15 14 13 13 13 13 14 14 14 15 15 17 18 18 18 18 18 18 17 17 18 18 17 18 19 22 24 25 27 28 29 29 28 26 23 20 20 20 20 20 19 18 19 19 19 19 18 18 18 19 19 20 21 21 21
33 33 30 28 27 26 24 22 20 18 18 17 17 16 16 16 17 18 19 20 21 21 22 22 21 21 20 19 17 16 15 14 14 13 13 13 14 14 15 15 15 17 18 19 19 19 18 18 16 17 17 17 16 16 17 20 24 25 27 27 28 29 28 27 25 22 19 19 21 21 20 18 17 18 18 17 17 17 17 17 19 20 20 20 20
32 33 31 29 28 27 25 23 21 19 18 18 18 17 17 16 17 18 19 20 21 22 22 23 22 21 20 19 17 16 15 14 14 14 14 14 14 15 15 15 15 17 18 18 18 18 18 17 16 16 16 16 16 16 17 18 22 24 26 26 27 29 28 27 25 23 20 18 20 21 21 19 17 16 17 17 16 16 16 17 18 18 18 19 18
31 33 31 30 29 27 25 23 22 20 19 19 18 18 17 17 18 18 19 20 21 23 23 23 22 21 20 19 18 16 16 15 14 13 13 14 15 15 16 15 16 17 18 18 18 18 18 17 16 16 15 15 15 16 18 18 20 23 24 25 26 28 28 27 25 23 21 19 19 21 20 19 19 17 17 17 16 15 15 15 15 15 16 17 16
31 32 31 31 30 28 26 24 22 21 20 19 18 18 17 18 18 19 20 19 20 22 23 23 21 20 20 19 18 17 17 15 14 13 13 14 15 16 17 16 16 17 18 18 18 18 17 16 15 15 14 13 14 16 17 18 20 22 23 23 25 27 27 26 24 23 21 19 18 21 21 19 20 18 16 16 16 15 14 13 13 12 12 13 13
29 31 31 32 31 29 26 24 23 21 20 19 18 18 17 17 18 18 19 19 20 21 23 22 20 19 19 19 18 17 16 15 14 13 13 14 16 17 18 17 17 17 18 18 18 18 17 16 15 14 13 13 14 16 17 18 20 22 23 23 25 26 26 26 24 22 21 20 18 21 22 20 20 19 17 16 16 15 14 13 12 11 10 9 8
29 30 31 31 30 29 26 25 23 22 20 19 18 17 17 17 17 17 18 18 19 20 21 21 20 19 18 19 18 16 15 15 15 14 14 15 16 17 18 19 18 18 18 18 17 17 16 15 15 13 13 13 14 17 18 19 20 21 22 23 24 25 25 25 24 22 22 21 19 20 21 20 20 20 18 17 16 16 15 13 12 11 9 8 7
28 29 30 30 30 29 27 25 23 22 20 19 17 16 16 16 16 16 16 17 18 19 18 17 17 17 18 19 18 16 15 15 15 14 15 15 15 17 19 20 19 19 18 18 17 16 16 15 15 14 13 12 13 17 19 19 19 20 21 22 24 24 25 25 24 22 21 21 20 20 21 20 20 21 19 18 17 16 14 12 12 10 9 9 8
28 28 29 30 29 28 27 24 23 22 20 19 17 16 16 15 15 15 16 17 18 19 18 16 16 16 17 18 17 16 16 15 15 15 14 14 14 15 19 20 19 19 18 18 17 16 15 15 14 13 12 12 12 17 19 18 19 19 20 21 23 24 24 24 23 22 21 20 20 21 22 21 22 22 20 19 18 16 14 12 12 11 10 10 9
28 29 29 29 29 28 27 24 23 22 21 19 17 17 16 15 14 14 15 16 17 18 18 18 16 16 17 17 15 15 15 15 14 14 13 13 12 14 18 21 20 19 18 18 17 16 15 15 14 13 12 11 11 16 18 17 17 18 19 20 22 23 23 23 22 22 20 20 20 21 21 21 22 22 21 20 19 18 16 15 14 13 12 11 11
28 28 28 28 28 27 26 24 23 22 21 19 18 17 16 14 13 12 13 13 15 16 17 18 17 17 18 17 15 14 13 13 13 13 13 13 13 14 18 20 20 19 18 18 17 16 16 15 14 12 11 10 10 13 17 16 16 16 17 19 20 22 22 21 21 22 20 20 20 20 19 20 21 21 21 21 21 20 19 18 17 16 15 14 14
28 28 28 28 27 27 25 24 23 22 20 19 18 17 15 14 11 11 11 11 13 14 14 14 15 15 17 17 15 15 14 13 13 13 14 15 15 15 18 20 19 19 18 18 17 16 16 15 14 13 11 10 9 10 14 15 14 14 15 16 18 20 21 21 20 21 20 19 18 18 18 19 20 20 21 21 21 21 20 20 19 18 18 17 17
28 28 27 27 27 26 25 24 22 21 20 19 17 16 15 13 11 10 10 11 11 12 13 13 14 13 15 16 15 14 14 13 13 14 14 15 15 16 17 19 19 19 19 19 18 17 16 15 14 13 11 9 9 8 11 14 13 13 14 15 16 18 19 19 20 19 19 18 17 17 17 18 19 19 20 20 20 20 20 19 19 18 18 18 18
27 28 27 27 26 25 24 24 22 21 19 18 17 15 14 12 10 10 10 11 11 13 14 14 14 14 14 15 15 14 14 14 14 14 15 15 15 16 17 18 18 19 20 20 20 19 17 17 15 13 11 9 8 8 9 12 12 12 13 13 14 16 16 17 18 18 18 17 16 15 16 17 17 18 18 18 18 18 18 18 18 18 18 18 18
27 27 27 26 26 25 24 23 22 20 19 17 16 15 13 11 10 10 10 11 12 13 15 15 15 15 15 15 15 15 14 14 15 15 15 15 15 15 16 18 17 18 19 20 21 20 19 18 16 14 12 10 8 8 8 9 11 11 12 12 13 14 15 15 16 16 17 16 15 14 15 15 16 16 16 16 16 16 16 16 17 17 17 17 17
27 26 26 26 25 24 24 23 22 20 18 17 15 14 13 11 10 10 11 12 13 14 14 15 15 15 15 15 15 15 15 15 15 15 15 15 15 15 16 17 17 17 17 19 21 21 20 19 17 15 13 11 9 8 7 7 9 10 11 11 12 13 14 14 14 16 16 16 15 13 13 14 15 15 15 14 14 14 14 15 15 15 15 16 16
25 25 25 24 24 24 23 23 22 20 18 17 15 14 13 11 11 11 12 13 13 14 14 15 15 15 15 15 15 15 15 15 15 15 15 14 14 14 14 16 17 17 16 18 20 21 21 20 19 17 15 13 11 8 8 7 7 9 10 11 11 12 13 13 13 15 16 15 15 13 13 13 13 14 14 13 13 13 13 13 13 14 14 14 15
21 23 23 24 24 23 23 22 22 21 20 19 17 15 13 12 11 12 13 13 14 14 14 15 15 15 15 14 14 14 14 14 14 14 13 13 12 12 12 14 15 16 16 17 19 21 21 21 20 18 16 14 12 10 8 7 7 8 9 10 10 11 12 12 13 14 15 15 15 14 13 12 11 12 12 12 12 11 11 11 11 12 12 12 13
19 21 21 22 22 22 22 21 22 22 21 20 18 17 14 13 12 12 13 13 14 14 14 14 14 14 14 14 14 14 14 13 13 12 12 11 11 11 11 12 14 16 15 16 17 20 21 21 20 19 17 15 13 11 9 8 7 7 9 9 9 10 11 11 12 13 14 15 15 14 13 11 10 10 11 11 11 10 10 10 10 10 10 11 11
19 20 19 20 21 21 22 21 22 22 21 20 19 18 15 14 12 13 13 13 13 13 14 14 14 15 15 15 14 14 14 13 12 11 10 10 10 10 10 11 12 15 15 15 16 18 20 21 21 19 18 16 14 12 10 8 7 7 8 9 9 9 10 11 11 12 13 14 14 14 13 11 9 9 9 9 9 9 9 9 9 9 9 9 9
20 19 19 21 22 22 23 23 23 22 22 21 20 19 17 15 14 14 14 14 13 13 14 14 15 16 15 14 14 14 13 12 11 10 10 9 9 9 9 9 10 12 14 15 15 17 19 21 21 20 19 17 15 13 11 9 7 7 8 9 9 8 9 10 10 10 11 12 13 13 13 11 9 7 7 8 8 8 8 8 8 8 8 8 7
21 22 22 23 24 25 25 24 23 23 23 22 20 20 19 17 15 16 15 14 13 13 14 14 14 14 14 13 13 13 13 12 10 9 9 9 9 9 8 7 7 9 12 14 15 16 17 19 20 20 20 18 16 14 12 10 7 7 7 8 9 9 9 10 9 10 11 12 12 12 12 12 10 7 6 7 7 6 6 6 7 7 7 6 6
24 24 24 24 25 26 26 24 24 24 23 23 22 21 20 18 17 17 16 15 13 12 13 13 13 12 13 13 12 12 12 11 10 9 8 8 8 8 7 7 7 8 9 11 14 15 15 17 19 20 21 20 17 15 13 11 8 7 8 9 9 9 9 9 10 10 12 12 12 12 11 11 10 9 7 6 6 5 4 4 5 5 5 5 5
27 26 26 26 26 26 25 24 24 24 24 24 23 22 21 19 18 17 16 15 14 13 12 12 12 12 13 13 13 13 12 11 10 10 8 7 7 6 6 6 6 6 7 8 10 12 13 15 17 19 21 20 17 15 14 12 9 8 8 9 10 10 9 9 11 11 12 12 11 11 10 10 10 9 7 5 4 3 2 2 3 4 4 4 4
29 29 29 29 27 26 24 24 23 24 24 24 23 22 21 19 18 18 17 16 14 13 12 11 12 13 13 14 14 13 12 11 10 9 8 7 6 5 6 6 5 5 5 6 7 9 11 13 15 17 19 19 17 15 15 13 10 8 9 9 9 9 9 10 11 11 10 10 9 9 9 8 8 8 6 4 5 4 2 1 2 3 3 3 3
31 30 30 29 28 27 24 23 23 24 24 24 23 22 21 19 18 18 18 16 14 13 12 12 12 12 13 13 13 12 11 11 10 9 8 7 6 6 6 5 4 4 5 6 6 7 9 11 13 15 17 18 17 15 14 13 11 9 8 9 9 9 9 9 9 9 8 7 7 8 8 7 7 8 5 3 4 5 4 2 2 3 2 2 3
31 29 29 28 27 26 24 24 24 24 25 25 24 23 22 20 20 20 19 17 15 14 13 13 13 13 14 13 12 11 11 11 10 9 7 7 6 6 7 5 5 4 5 5 6 6 8 10 12 13 15 17 17 16 14 13 11 9 7 7 9 8 8 8 8 7 6 6 6 7 7 6 7 7 4 1 3 5 5 4 3 2 2 2 2
29 29 28 27 26 25 25 25 25 25 25 25 25 24 22 21 21 20 19 18 16 15 14 14 14 15 15 13 12 11 11 10 9 9 7 7 7 7 6 6 6 6 5 5 6 6 8 10 12 12 13 15 16 16 14 12 11 8 6 6 7 7 7 7 6 6 5 5 5 6 6 6 7 7 4 1 4 6 5 5 4 3 3 3 3
27 28 28 28 26 24 25 25 26 26 25 25 25 24 23 21 21 20 19 18 17 15 15 16 16 16 14 13 12 10 10 9 8 8 8 8 8 8 7 6 6 6 6 6 6 7 8 10 11 12 12 14 15 16 14 12 11 8 6 5 5 5 5 6 5 5 5 5 4 5 6 6 7 7 4 3 5 7 6 4 4 5 5 5 6
26 27 27 28 26 24 24 24 24 24 24 25 24 24 22 20 20 21 19 17 16 16 17 17 17 16 13 12 11 9 9 8 7 8 9 9 8 8 7 7 6 6 6 6 6 7 9 10 11 11 11 12 13 15 14 12 11 8 6 4 4 4 5 5 5 5 4 4 4 4 5 6 7 7 5 5 7 10 10 7 7 9 10 10 10
26 26 27 28 27 25 24 23 23 23 23 24 24 23 22 20 20 19 18 16 14 16 19 18 18 16 13 11 10 9 8 8 7 8 9 9 9 8 7 6 6 7 6 6 7 7 8 9 10 10 10 10 11 13 14 12 11 9 7 5 4 4 5 5 5 5 4 3 4 4 5 6 6 6 7 8 9 11 12 11 10 11 13 14 14
26 26 26 26 26 26 24 23 23 23 23 24 23 22 20 19 19 18 18 16 13 17 19 16 17 15 12 10 9 8 6 6 7 8 9 8 8 6 5 6 7 8 8 7 8 8 8 9 9 9 8 8 9 11 13 12 11 10 8 6 4 5 6 6 5 5 4 3 4 4 5 6 7 7 8 10 9 9 10 10 8 7 9 10 10
24 25 25 25 26 26 24 23 23 22 23 23 22 21 19 18 17 16 16 15 14 19 18 14 15 12 10 9 9 9 7 6 7 7 8 8 7 5 4 5 7 9 9 8 8 9 9 9 9 8 7 7 7 9 11 12 11 10 10 8 7 6 5 5 4 4 5 4 4 5 6 7 7 7 7 9 9 7 7 6 6 5 5 5 5
23 23 23 23 25 25 24 24 23 22 22 22 21 20 18 17 15 14 15 15 16 18 16 13 11 9 9 9 8 8 8 8 8 7 8 6 5 5 4 4 6 9 9 9 9 9 9 10 9 9 7 6 7 9 10 10 9 10 12 11 10 7 4 4 3 3 5 5 6 6 6 7 7 6 6 8 8 5 4 4 4 4 3 3 3
21 19 20 22 23 24 24 23 23 22 21 21 20 18 16 16 15 14 15 16 17 17 15 14 11 9 9 9 9 7 8 8 8 7 7 6 5 5 5 4 5 7 8 9 9 8 9 9 9 9 7 5 6 8 9 8 8 11 11 9 8 8 5 5 4 5 6 6 7 6 6 7 6 6 6 6 7 5 4 4 4 3 2 3 3
18 16 18 21 21 22 24 23 22 21 20 20 18 16 15 16 16 16 17 17 18 16 16 15 12 10 9 9 9 8 8 9 8 8 7 7 6 6 6 5 4 6 7 8 9 8 8 8 8 9 7 5 5 7 8 9 8 8 8 8 8 9 8 7 7 7 7 7 7 6 6 6 6 5 5 5 5 5 5 4 4 3 4 5 5
16 16 17 18 19 20 22 21 20 20 20 19 18 16 16 17 17 17 18 17 18 17 15 14 12 11 9 9 10 10 10 9 9 8 8 8 7 7 7 5 5 5 6 8 8 8 7 7 7 8 8 6 5 7 9 10 9 7 9 10 10 11 10 9 9 9 8 7 7 7 6 5 5 4 4 3 3 3 4 3 3 2 3 5 6
17 17 17 17 17 17 18 18 18 19 20 19 18 17 17 18 18 19 19 18 17 16 14 13 13 12 11 11 11 11 11 10 9 9 8 8 8 7 8 6 5 5 6 7 8 8 6 6 6 7 9 8 6 8 11 11 11 11 12 12 12 12 11 11 10 9 8 7 7 7 6 4 4 3 2 1 1 2 2 2 1 1 3 5 6
17 17 17 17 18 17 17 17 19 19 20 20 20 20 20 20 19 20 21 19 17 16 15 14 14 13 12 11 12 12 11 10 9 8 8 9 8 8 8 8 6 6 7 7 7 7 6 6 7 8 11 12 10 11 12 13 14 15 14 14 14 12 11 12 11 10 9 8 8 7 6 4 3 3 2 1 2 2 2 2 1 2 3 4 5
18 18 18 18 19 19 19 19 20 20 21 22 22 22 22 22 21 21 21 21 19 17 16 14 12 12 11 11 11 12 11 11 10 9 9 9 10 10 10 9 7 7 8 8 8 8 7 7 9 10 12 13 14 13 12 14 16 17 16 14 14 13 12 12 11 11 10 9 8 7 6 5 4 4 3 2 0 2 4 3 2 2 2 3 4
20 19 20 19 18 19 21 21 20 20 22 24 23 23 23 22 22 22 21 20 19 17 15 13 11 11 11 11 11 11 11 10 9 9 9 9 10 10 10 10 9 9 9 9 9 9 9 9 10 12 14 13 13 14 14 14 15 17 17 16 15 14 12 12 12 12 11 10 8 7 7 6 6 6 5 5 4 5 6 5 6 5 3 4 5
21 21 20 18 18 19 21 22 22 22 23 23 23 23 23 21 20 19 18 17 16 15 13 12 11 11 11 10 11 10 9 8 7 8 8 8 9 9 9 11 11 10 9 9 10 11 10 9 10 13 15 14 13 14 15 14 14 15 16 16 16 16 13 12 12 12 12 11 9 8 8 7 6 7 6 6 5 5 6 6 8 7 6 6 6
22 22 21 18 18 20 22 22 23 24 25 24 23 23 22 20 19 17 16 15 14 13 13 12 12 12 11 10 9 9 8 7 7 8 8 8 8 8 9 10 11 9 8 9 10 11 11 10 12 13 14 14 14 15 16 14 13 13 15 15 16 16 14 13 13 13 12 10 10 10 10 9 8 9 8 8 7 7 7 8 8 8 8 7 8
23 22 20 19 19 22 23 22 24 26 25 24 24 22 21 20 19 18 17 16 15 14 14 13 13 12 11 10 8 8 7 7 7 8 8 8 8 8 9 10 9 8 8 9 9 10 11 11 13 13 12 11 12 15 16 14 13 12 12 14 13 12 13 16 14 12 11 9 10 11 11 11 10 10 10 9 9 9 9 9 9 9 8 9 10
23 21 19 19 20 23 24 24 25 25 25 24 23 21 20 20 20 20 19 17 16 15 14 12 11 11 10 9 8 7 7 7 8 8 9 9 9 10 10 9 8 7 8 10 10 10 11 11 12 13 12 10 10 14 16 15 15 14 11 10 8 8 15 18 15 13 11 9 9 11 11 10 10 11 11 12 11 10 10 10 10 10 10 11 11
23 21 20 20 22 24 25 25 25 25 24 24 23 22 21 20 19 18 17 17 16 15 14 12 11 11 11 10 9 8 7 7 8 7 8 9 10 10 10 9 9 8 9 10 10 11 11 11 12 13 13 12 11 13 15 14 15 15 12 9 5 5 12 14 12 13 14 12 10 11 11 11 11 13 13 13 12 11 10 9 10 10 10 10 11
24 22 21 22 24 25 25 26 26 25 24 23 23 22 21 20 19 17 17 15 14 14 14 14 13 12 11 10 10 9 8 8 7 7 7 8 9 9 8 9 10 10 10 9 10 11 12 12 13 13 12 12 11 11 13 13 13 15 14 11 7 6 9 10 8 10 13 15 14 12 12 12 12 12 13 13 12 10 9 9 9 9 9 10 10
24 23 23 24 25 25 25 26 26 25 24 24 24 23 21 19 18 18 17 15 15 15 15 14 13 12 12 11 10 9 8 8 7 6 6 6 7 7 7 8 9 9 9 10 11 11 13 13 12 12 12 12 12 11 11 11 12 13 13 12 9 6 9 11 10 10 11 13 15 15 14 13 12 12 12 12 11 10 9 8 8 8 9 9 10
25 24 24 25 26 26 25 26 25 24 24 24 23 23 21 20 19 18 17 16 16 16 15 14 13 12 11 10 10 9 8 8 7 7 6 5 5 5 5 6 7 8 9 10 11 11 12 13 11 11 11 11 11 11 11 11 11 12 12 12 11 8 9 11 13 13 11 9 11 15 14 12 12 12 12 11 10 10 9 9 8 7 7 8 9
26 26 25 26 26 26 26 25 25 25 25 25 24 23 21 20 19 17 16 15 15 15 15 14 13 12 11 10 10 9 8 7 6 6 5 5 5 5 5 5 6 6 8 9 10 10 11 12 12 12 11 11 10 10 11 11 11 11 12 12 11 9 8 8 11 14 13 10 10 15 14 11 10 11 11 10 9 9 9 9 8 8 8 8 9
Wind_Direction
167 169 171 167 165 164 161 159 160 159 155 151 147 146 149 152 154 155 156 156 156 156 156 156 156 154 152 148 144 142 140 138 134 128 124 120 121 122 117 112 107 107 109 105 102 104 105 105 104 100 97 98 98 96 92 89 87 82 78 75 74 74 74 76 80 91 104 104 98 98 97 97 100 103 108 111 111 109 104 99 95 90 88 91 93
164 169 170 165 164 163 160 158 158 155 151 149 146 144 145 149 153 158 161 160 159 158 158 156 155 153 151 148 145 144 143 141 137 133 128 127 128 125 120 114 108 108 110 109 108 107 107 106 104 100 98 99 99 99 98 90 85 81 78 75 73 71 69 71 74 84 101 107 107 104 101 100 102 107 111 114 114 110 106 99 95 90 87 89 91
161 168 168 163 163 162 160 158 157 152 150 148 145 143 143 147 151 156 160 162 162 161 159 157 155 153 151 149 147 146 144 142 139 135 133 133 134 130 124 118 114 114 114 113 112 110 109 108 106 105 102 101 100 103 101 90 84 80 77 74 71 69 67 68 70 75 87 105 115 112 108 108 106 113 118 120 120 116 112 105 99 94 89 88 87
162 166 165 162 162 162 160 158 156 151 148 146 142 140 141 145 149 152 154 159 162 162 160 158 156 154 153 151 150 149 145 142 140 139 141 141 139 134 128 122 118 118 118 117 116 114 113 112 109 106 103 103 104 104 100 88 82 80 76 71 69 68 66 66 68 71 74 89 109 115 117 118 115 118 125 128 126 123 120 113 107 104 100 95 90
164 165 163 161 161 162 161 159 155 150 147 144 142 139 139 141 146 149 150 154 158 160 161 159 157 155 154 153 151 149 143 140 141 145 147 147 146 140 130 123 119 119 121 121 119 118 116 116 114 110 107 105 104 102 99 89 82 80 77 71 69 67 65 65 66 68 67 73 93 107 113 118 123 125 128 133 131 129 128 121 114 112 112 108 103
165 165 163 161 161 162 161 159 155 151 147 144 143 139 138 137 141 146 148 151 155 158 159 156 154 155 155 153 150 145 143 142 145 148 149 149 151 144 133 127 123 122 123 125 123 121 119 118 119 117 113 107 101 98 98 91 84 82 79 75 71 69 67 65 65 66 65 66 78 94 101 108 121 125 126 134 133 130 130 127 124 122 120 116 107
167 166 164 162 161 161 161 160 157 152 147 145 143 139 137 136 137 140 144 147 150 154 155 151 149 153 156 155 150 146 148 148 148 150 150 150 150 145 137 132 127 125 126 128 126 124 122 121 119 117 112 107 101 96 96 92 87 83 81 79 74 70 67 65 66 66 66 65 71 85 92 98 112 118 120 129 134 132 130 130 132 129 125 118 105
169 168 164 162 161 161 161 161 159 154 148 147 144 140 138 136 137 137 139 141 143 147 147 149 150 151 154 152 146 144 148 149 151 153 153 151 149 145 138 134 131 130 131 130 128 127 126 124 121 117 112 107 101 95 94 92 89 85 83 80 75 70 67 66 66 67 66 66 68 78 86 90 101 109 114 121 129 132 129 130 129 127 124 120 111
171 168 165 163 162 161 161 162 161 155 151 150 147 143 141 139 139 136 135 135 137 138 138 145 147 147 152 147 142 142 147 153 153 154 153 152 154 149 141 137 135 135 134 132 130 130 128 126 123 120 115 107 100 96 95 93 90 86 83 80 76 70 67 66 66 68 68 67 68 73 80 85 92 101 107 113 121 125 125 126 124 125 124 119 113
172 168 165 165 162 162 162 162 162 158 155 153 151 148 145 143 142 141 140 138 138 138 140 145 146 152 153 143 141 147 153 158 154 152 151 150 156 148 139 139 139 138 137 135 132 131 130 127 124 122 116 109 101 97 97 95 91 85 82 81 77 72 68 65 65 67 69 69 70 72 76 80 86 92 99 106 112 116 119 119 116 117 114 110 111
172 168 166 165 163 163 163 163 163 161 159 158 156 153 150 148 148 146 145 145 141 140 147 150 153 159 147 140 148 154 156 156 152 150 147 147 149 137 131 137 142 142 141 137 134 133 132 129 126 124 119 111 102 100 99 96 92 87 82 80 77 76 72 65 63 65 68 68 67 68 72 76 81 86 92 98 102 106 110 110 109 110 108 107 107
171 167 165 165 164 164 165 165 166 164 163 162 159 156 154 152 153 151 151 150 144 144 152 153 156 156 144 147 155 152 151 150 147 144 141 140 138 131 129 136 143 145 145 141 138 138 136 132 130 127 124 116 105 101 101 98 95 90 84 79 77 77 75 68 63 62 65 67 66 66 69 74 78 83 87 90 94 98 100 101 102 104 103 101 100
169 166 166 166 165 166 166 167 168 167 165 165 163 160 156 153 153 152 152 150 146 146 151 149 148 148 145 149 151 144 147 146 143 139 138 137 135 133 131 137 145 148 149 146 143 143 140 137 135 135 133 127 115 105 103 102 96 92 87 80 77 78 76 71 66 62 63 68 69 68 68 71 76 81 85 88 90 92 93 94 94 95 95 95 95
169 167 167 167 166 167 168 169 170 169 167 168 168 163 158 154 151 149 150 147 145 143 142 141 138 137 137 139 139 138 140 140 138 137 138 137 134 133 131 137 146 152 153 151 150 149 146 143 143 145 144 140 129 115 107 105 99 93 89 81 79 79 74 71 68 64 62 65 71 71 68 70 74 79 83 86 88 90 91 91 92 92 93 93 93
170 168 167 168 168 168 169 171 171 171 170 171 170 166 160 154 151 151 151 147 144 143 140 139 137 137 136 134 134 133 134 135 134 134 133 131 131 132 130 132 142 151 155 156 155 154 152 151 153 154 155 155 144 131 115 108 103 96 91 84 81 80 75 70 68 67 65 66 72 74 71 72 76 78 81 85 88 90 91 92 92 91 91 91 91
170 169 168 170 169 169 170 172 173 172 172 173 171 167 163 157 155 155 153 149 146 144 140 138 138 139 139 136 134 132 133 133 132 131 129 128 129 132 130 127 133 145 154 159 159 158 158 158 160 163 164 167 161 147 128 113 107 101 95 89 84 81 75 71 68 67 67 66 71 78 77 76 78 79 81 84 86 88 89 90 90 89 88 87 87
170 170 169 170 170 171 172 173 174 173 174 174 172 169 167 164 161 160 155 152 148 145 142 139 138 138 139 137 136 134 134 133 131 131 129 130 130 132 131 127 130 136 147 158 163 162 162 164 167 170 172 174 173 162 142 124 111 106 101 94 88 83 76 70 68 66 66 66 70 80 86 81 78 78 79 81 83 85 86 87 88 87 86 85 85
169 170 170 171 172 175 174 174 173 173 176 177 175 173 171 170 168 166 159 154 151 149 146 143 141 141 140 138 137 135 134 134 132 131 130 130 130 130 130 130 131 133 139 153 164 167 167 170 171 174 178 179 179 175 158 140 123 113 107 100 91 84 77 69 65 66 66 65 69 79 90 89 83 82 80 80 82 83 85 86 87 87 86 85 85
167 170 172 173 174 176 176 175 175 175 180 180 179 176 174 177 173 168 160 154 154 153 152 150 149 147 145 142 140 138 136 135 134 132 130 130 130 130 130 130 132 134 137 147 162 171 172 173 175 177 181 183 182 181 172 156 140 124 113 106 95 85 79 72 66 67 67 64 65 70 83 95 92 88 85 84 82 83 85 86 86 86 86 86 87
167 170 172 174 174 177 177 177 178 179 183 183 181 177 175 179 175 169 161 157 157 158 159 156 155 153 152 150 148 147 143 142 140 134 132 134 134 131 130 129 130 134 138 144 157 171 176 177 179 181 184 186 185 185 181 166 152 135 121 111 99 90 83 75 70 69 68 65 64 64 72 88 96 93 90 89 87 86 86 85 85 86 86 87 89
167 170 172 174 174 177 180 181 183 184 185 185 183 177 176 179 175 169 165 163 164 163 163 160 160 159 158 158 156 156 152 149 145 140 141 140 137 135 134 131 130 133 138 143 153 167 177 181 183 185 187 189 189 189 188 177 161 142 125 116 105 96 87 80 76 70 65 62 61 62 63 71 91 98 93 92 92 90 88 86 86 85 85 85 87
169 172 175 179 179 182 185 184 184 186 187 187 184 179 179 180 176 173 169 170 171 167 166 165 166 165 163 162 159 160 159 155 149 147 150 145 142 143 140 135 134 135 138 144 151 165 177 185 187 188 191 191 191 192 192 187 168 146 131 121 113 103 92 83 78 68 62 59 56 56 57 60 76 95 100 98 96 96 92 89 89 86 85 85 87
172 177 180 184 186 187 186 184 184 186 188 189 185 182 183 181 179 178 174 175 177 172 169 170 168 165 164 163 160 163 161 157 152 153 153 152 153 151 148 147 151 148 144 146 152 163 175 185 190 191 194 193 192 192 193 193 177 154 142 130 122 112 96 85 77 67 62 61 57 52 52 55 58 73 95 99 96 102 98 95 93 89 89 87 87
179 183 185 188 190 190 186 184 185 187 189 189 186 185 184 183 182 180 178 179 181 177 172 172 171 169 170 169 166 165 163 159 156 156 155 160 164 159 159 164 167 159 149 149 155 162 171 181 189 193 195 194 191 190 191 195 186 161 151 140 127 117 102 86 73 69 67 64 61 56 53 52 51 58 72 83 88 98 101 103 104 96 95 88 81
184 186 189 191 191 191 188 186 187 189 191 190 187 187 186 185 183 180 180 182 184 181 176 178 179 179 177 173 169 168 167 164 159 160 160 166 171 163 165 175 173 160 151 152 156 163 169 177 187 194 196 194 191 188 190 196 192 169 157 146 130 119 105 86 76 75 71 64 61 61 58 53 54 63 66 63 52 56 88 113 120 106 97 86 77
187 189 192 193 193 192 191 190 190 192 193 192 189 188 188 187 184 183 183 185 186 181 177 180 180 177 173 169 169 168 166 163 162 163 161 165 170 169 177 185 178 159 153 156 162 167 170 177 185 192 196 193 188 186 187 196 197 177 162 148 129 118 100 82 77 76 69 64 62 63 65 58 64 79 76 34 3 4 40 97 142 124 104 86 72
190 192 194 194 193 191 191 193 193 195 194 192 190 190 190 188 187 187 189 190 188 181 176 175 173 170 167 165 167 166 161 162 165 162 160 164 170 183 192 189 171 154 157 163 169 172 173 180 184 188 194 192 184 182 185 192 196 181 166 147 126 114 94 79 74 70 67 69 68 66 71 69 76 88 82 41 355 356 15 44 139 124 106 88 70
194 193 193 195 194 191 192 194 195 197 196 192 190 191 191 190 191 191 190 192 191 184 176 171 168 165 164 163 163 162 162 163 163 159 161 169 179 193 192 180 159 148 158 162 167 174 176 181 184 184 188 187 179 179 182 187 191 181 168 145 123 108 88 77 70 67 70 71 71 74 82 85 91 95 90 58 329 346 15 49 85 94 91 86 64
201 198 195 197 197 193 194 197 196 197 197 193 190 192 194 193 193 192 191 194 192 182 175 172 167 164 163 164 163 162 163 162 160 160 165 175 185 191 187 174 155 143 150 157 159 168 175 178 180 180 181 180 176 179 181 182 187 179 163 140 117 104 86 79 73 70 76 75 79 87 92 97 106 105 101 67 5 19 55 68 65 62 69 72 58
204 204 200 199 199 196 197 199 196 196 197 194 193 195 196 195 195 195 194 197 197 185 175 173 169 165 167 169 167 164 165 161 158 165 171 179 184 185 183 172 157 149 151 159 159 161 171 175 175 175 176 177 176 179 182 184 187 179 161 142 123 111 94 88 87 87 88 87 91 93 94 95 104 109 107 92 45 46 77 91 72 56 58 67 65
205 207 204 201 200 198 200 201 198 196 197 197 197 197 197 197 197 197 196 200 206 194 178 174 172 170 172 172 168 166 169 166 165 173 178 181 184 182 178 168 162 167 169 171 168 164 170 174 173 175 176 177 179 183 187 191 192 187 175 163 144 122 108 110 107 98 93 93 92 84 88 89 97 103 95 88 69 63 75 87 73 56 61 71 72
205 207 206 202 199 200 203 204 201 197 198 201 199 198 198 197 197 199 199 203 213 197 181 179 179 175 173 170 167 170 173 175 179 182 183 183 184 182 175 168 173 183 189 189 184 179 179 178 177 179 179 180 183 187 192 198 201 200 196 189 170 134 128 131 120 110 103 96 93 84 85 85 90 91 84 91 86 73 73 78 74 61 64 72 74
206 206 208 205 201 204 206 205 203 200 201 204 202 201 201 200 200 203 202 206 208 193 186 188 187 177 166 163 162 164 168 180 189 189 186 186 187 184 179 182 189 194 196 198 197 194 192 189 186 185 185 186 187 192 197 201 205 206 206 202 174 152 151 149 141 135 125 111 103 93 87 82 82 82 83 92 89 75 72 75 78 73 69 70 71
205 205 209 207 206 209 209 207 206 203 203 206 205 205 207 208 209 206 204 205 196 188 190 195 194 174 151 154 156 160 164 179 190 191 190 190 187 181 183 192 195 198 198 196 198 198 200 200 196 195 194 191 193 194 196 200 207 211 210 199 169 160 161 155 156 141 123 115 108 96 90 86 85 86 88 94 92 83 83 83 85 96 93 81 76
209 208 208 208 210 211 210 208 207 205 206 207 206 205 209 213 214 208 202 199 189 189 189 188 190 165 150 161 165 169 173 185 192 189 189 185 175 173 179 187 191 196 199 195 194 195 198 201 202 206 204 197 194 190 194 202 208 208 202 188 165 152 150 155 148 128 123 118 112 104 95 90 90 90 90 97 104 105 104 106 104 105 101 84 76
212 210 209 208 210 210 211 211 209 208 207 207 207 207 209 212 211 203 196 192 188 188 184 182 184 169 166 177 181 185 185 194 198 188 190 180 168 175 182 186 189 196 201 197 195 192 193 199 205 208 204 197 192 191 198 199 199 197 187 178 159 134 132 147 134 133 133 126 122 114 100 94 96 98 91 93 103 111 111 109 102 90 70 65 67
208 209 208 210 212 210 209 212 211 209 206 206 209 210 207 205 203 196 191 189 186 184 181 183 185 177 182 191 191 194 195 203 203 193 193 181 175 185 190 193 189 194 201 198 196 193 191 196 200 202 195 188 189 195 195 181 187 190 156 145 144 126 134 146 139 143 138 135 134 122 110 106 107 106 99 94 99 106 103 93 85 76 70 64 51
201 205 210 214 215 209 207 210 210 207 206 205 207 207 202 199 197 192 190 187 184 182 182 186 188 189 198 200 197 199 203 210 207 200 196 187 187 191 196 203 197 198 203 200 200 195 190 189 189 195 189 177 180 187 182 169 167 161 133 130 132 125 133 140 137 140 136 137 136 125 121 117 118 118 108 102 101 107 97 79 79 74 43 26 14
198 203 211 216 217 210 204 207 207 205 204 202 202 201 196 193 190 186 185 183 182 184 187 190 194 201 207 204 202 203 208 214 210 204 201 199 200 200 206 209 205 209 205 201 201 193 192 187 175 180 177 161 161 176 174 162 152 147 138 132 129 127 132 135 135 134 130 132 131 132 132 120 117 126 132 137 161 167 134 107 101 30 353 353 357
199 203 210 213 216 211 197 200 207 205 203 200 197 195 190 185 181 180 181 181 181 185 188 190 194 202 206 205 205 208 214 220 220 217 214 212 209 207 213 210 206 212 204 198 199 191 189 177 158 164 168 156 159 173 170 161 151 143 140 135 129 130 131 131 131 126 120 117 119 128 131 120 119 130 135 173 247 240 149 145 267 310 333 351 0
200 202 210 210 208 202 189 195 204 202 201 199 192 189 183 177 175 175 176 178 182 188 189 190 194 201 205 208 210 215 222 228 231 230 226 220 211 209 213 210 205 206 197 187 187 187 181 166 155 160 167 162 163 172 172 164 154 144 141 138 131 131 131 129 128 122 117 114 115 120 120 112 109 118 114 100 40 34 79 88 25 7 1 21 25
199 201 211 205 198 193 185 190 196 193 192 190 183 181 178 174 173 172 173 178 185 190 191 192 197 206 212 214 215 219 223 228 231 231 225 217 213 212 209 204 200 199 195 185 180 183 179 170 163 163 166 171 169 169 173 167 157 149 146 142 136 135 132 128 125 118 112 108 106 104 104 101 98 107 106 92 75 55 64 64 58 67 62 46 41
199 203 208 200 193 189 181 182 186 181 177 174 173 173 173 174 173 172 175 181 185 187 189 195 202 209 211 209 213 216 215 219 224 226 219 212 215 212 202 199 197 196 195 190 183 179 179 176 171 169 168 173 174 168 171 173 165 155 149 145 142 139 131 124 121 112 104 99 94 90 88 90 90 90 88 81 76 69 67 63 62 66 63 55 47
200 203 202 197 193 185 177 176 176 172 167 167 169 171 172 171 171 174 178 180 181 183 190 198 201 204 203 200 205 207 205 212 217 220 215 209 216 210 197 195 196 198 196 193 187 179 180 178 172 175 173 173 175 170 169 174 175 164 154 148 146 143 135 131 126 113 106 99 94 91 88 86 83 81 82 84 88 88 80 72 68 66 63 59 55
201 202 197 196 191 180 173 170 169 167 166 167 169 170 170 170 172 176 178 178 180 185 191 192 191 191 192 194 198 197 198 204 206 209 207 205 208 201 191 186 190 202 194 183 183 180 180 178 172 176 180 179 177 173 172 175 179 180 169 156 151 153 149 144 135 119 113 110 102 100 94 87 85 85 88 89 89 88 82 76 73 70 69 68 68
200 198 194 192 185 176 169 166 166 166 166 168 169 170 170 174 178 179 179 180 182 185 185 182 178 178 180 184 189 190 193 198 197 197 199 200 198 190 186 185 189 197 188 178 178 182 183 179 173 176 182 189 187 178 179 180 182 188 190 174 165 174 166 155 146 134 127 121 114 110 102 95 95 96 95 92 88 83 79 77 77 77 76 76 74
198 194 191 187 178 173 168 166 166 165 166 170 172 172 174 179 183 183 183 185 183 180 176 171 169 170 173 176 180 184 189 192 191 187 190 192 188 184 185 188 187 184 183 181 180 184 187 182 178 178 182 189 194 187 186 189 188 190 194 191 179 176 179 174 164 156 147 139 132 122 113 109 107 103 99 93 88 86 84 84 86 85 79 75 69
195 190 187 182 176 171 168 167 167 165 168 172 173 174 178 183 185 185 185 184 180 175 171 169 170 171 171 172 175 179 182 185 184 182 184 183 183 183 186 187 183 181 184 187 188 189 191 188 183 182 185 189 194 195 196 200 200 196 194 195 187 168 184 194 193 185 169 153 147 137 125 121 116 107 99 91 87 89 92 93 92 86 77 69 62
192 189 184 180 176 172 168 168 168 169 171 172 173 176 181 186 184 181 179 175 173 174 172 170 171 172 171 172 174 175 178 181 180 181 183 183 185 183 181 182 181 182 186 188 190 189 191 195 192 188 190 192 193 196 200 208 213 205 197 198 200 184 183 193 201 206 191 167 157 151 142 136 128 113 100 91 85 86 91 98 97 84 73 64 59
192 188 183 180 176 173 171 170 170 171 172 172 174 178 182 183 179 176 176 173 172 172 170 169 171 173 173 175 177 177 181 183 181 181 180 176 177 179 179 183 183 185 187 186 186 187 189 193 196 195 195 194 196 199 200 207 216 214 205 203 207 202 191 191 198 202 201 190 173 161 153 147 139 123 109 97 84 80 83 92 98 88 75 67 66
193 188 183 180 178 176 176 175 174 174 174 174 177 180 181 178 174 175 176 173 169 167 164 163 164 165 167 171 173 174 178 182 183 186 187 180 171 172 177 185 190 187 185 185 186 186 186 187 190 192 195 198 204 206 203 203 208 212 210 206 207 212 209 201 203 203 201 198 181 165 159 153 146 132 119 107 88 77 77 87 97 92 84 77 75